DW8450 Weather Reports


Display with metric or nautical units.
time (UTC)temp
F
wind
direction
speed
MPH
gust
MPH
rain 1hr
in
rain 24hr
in
rain mn
in
humidity
%
barometer
mb
20211024001553 60 284 3.0 8.0 0.00 0.00 0.00 27 1005.4
20211024000031 61 269 3.0 10.0 0.00 0.00 0.00 27 1005.3
20211023234521 62 298 4.0 12.0 0.00 0.00 0.00 27 1005.3
20211023233035 63 298 7.0 13.0 0.00 0.00 0.00 27 1005.4
20211023231550 62 300 4.0 11.0 0.00 0.00 0.00 28 1005.5
20211023230028 63 250 5.0 11.0 0.00 0.00 0.00 26 1005.4
20211023224523 63 242 4.0 14.0 0.00 0.00 0.00 25 1005.3
20211023223030 63 269 2.0 6.0 0.00 0.00 0.00 26 1005.4
20211023221526 63 248 2.0 11.0 0.00 0.00 0.00 27 1005.5
20211023220020 63 301 6.0 12.0 0.00 0.00 0.00 28 1005.7
20211023214543 64 259 4.0 11.0 0.00 0.00 0.00 27 1005.6
20211023213050 65 239 5.0 12.0 0.00 0.00 0.00 27 1005.6
20211023211519 64 257 6.0 10.0 0.00 0.00 0.00 27 1005.9
20211023210020 64 270 5.0 14.0 0.00 0.00 0.00 25 1006.0
20211023204538 65 275 6.0 12.0 0.00 0.00 0.00 25 1006.0
20211023203017 66 233 7.0 12.0 0.00 0.00 0.00 25 1006.3
20211023201507 65 260 7.0 14.0 0.00 0.00 0.00 28 1006.7
20211023200017 66 268 4.0 13.0 0.00 0.00 0.00 26 1006.8
20211023194504 65 280 6.0 13.0 0.00 0.00 0.00 27 1007.0
20211023193002 66 317 6.0 13.0 0.00 0.00 0.00 26 1007.3
20211023191703 66 269 4.0 12.0 0.00 0.00 0.00 27 1007.7
20211023190202 65 305 10.0 15.0 0.00 0.00 0.00 28 1008.0
20211023184604 65 242 5.0 13.0 0.00 0.00 0.00 28 1008.3
20211023183119 65 279 6.0 16.0 0.00 0.00 0.00 29 1008.5
20211023181551 64 266 4.0 13.0 0.00 0.00 0.00 30 1009.0
20211023180054 63 263 3.0 10.0 0.00 0.00 0.00 30 1009.2
20211023174723 62 275 4.0 10.0 0.00 0.00 0.00 31 1009.4
20211023173058 62 263 7.0 12.0 0.00 0.00 0.00 30 1009.5
20211023171608 62 311 5.0 12.0 0.00 0.00 0.00 30 1009.5
20211023170038 62 308 5.0 10.0 0.00 0.00 0.00 30 1009.7
20211023164550 62 316 4.0 11.0 0.00 0.00 0.00 30 1009.8
20211023163049 62 285 3.0 8.0 0.00 0.00 0.00 29 1009.9
20211023161547 60 290 3.0 7.0 0.00 0.00 0.00 29 1010.0
20211023160039 59 277 2.0 6.0 0.00 0.00 0.00 29 1010.3
20211023154534 58 256 2.0 6.0 0.00 0.00 0.00 30 1010.3
20211023153028 57 277 1.0 6.0 0.00 0.00 0.00 30 1010.4
20211023151520 56 278 1.0 6.0 0.00 0.00 0.00 32 1010.4
20211023150005 54 284 2.0 6.0 0.00 0.00 0.00 32 1010.4
20211023144652 52 349 2.0 5.0 0.00 0.00 0.00 34 1010.5
20211023143137 50 351 2.0 5.0 0.00 0.00 0.00 36 1010.5
20211023141556 47 355 2.0 4.0 0.00 0.00 0.00 38 1010.5
20211023140200 45 355 1.0 4.0 0.00 0.00 0.00 39 1010.5
20211023134659 43 355 2.0 4.0 0.00 0.00 0.00 39 1010.4
20211023133054 42 355 3.0 5.0 0.00 0.00 0.00 40 1010.5
20211023131549 41 21 2.0 4.0 0.00 0.00 0.00 41 1010.7
20211023130120 42 21 0.0 3.0 0.00 0.00 0.00 38 1010.6
20211023124644 43 21 0.0 1.0 0.00 0.00 0.00 37 1010.6
20211023123052 44 21 0.0 3.0 0.00 0.00 0.00 35 1010.6
20211023121546 45 21 0.0 3.0 0.00 0.00 0.00 34 1010.6
20211023120052 44 21 0.0 1.0 0.00 0.00 0.00 35 1010.7
20211023114604 44 21 0.0 0.0 0.00 0.00 0.00 36 1010.6
20211023113122 43 21 0.0 0.0 0.00 0.00 0.00 38 1010.5
20211023111554 43 21 0.0 0.0 0.00 0.00 0.00 37 1010.4
20211023110043 43 21 0.0 1.0 0.00 0.00 0.00 36 1010.4
20211023104533 44 21 0.0 3.0 0.00 0.00 0.00 35 1010.5
20211023103049 44 21 0.0 2.0 0.00 0.00 0.00 35 1010.6
20211023101528 44 21 0.0 1.0 0.00 0.00 0.00 35 1010.7
20211023100026 44 21 0.0 1.0 0.00 0.00 0.00 36 1010.6
20211023094601 44 21 0.0 1.0 0.00 0.00 0.00 35 1010.7
20211023093031 45 21 0.0 1.0 0.00 0.00 0.00 34 1010.8
20211023091525 46 21 0.0 0.0 0.00 0.00 0.00 33 1011.0
20211023090010 47 21 0.0 0.0 0.00 0.00 0.00 32 1011.2
20211023084523 47 21 0.0 0.0 0.00 0.00 0.00 31 1011.3
20211023083007 47 21 0.0 0.0 0.00 0.00 0.00 32 1011.4
20211023081514 47 21 0.0 1.0 0.00 0.00 0.00 32 1011.5
20211023080005 47 21 0.0 0.0 0.00 0.00 0.00 31 1011.4
20211023074504 48 21 0.0 2.0 0.00 0.00 0.00 31 1011.5
20211023073002 48 21 1.0 4.0 0.00 0.00 0.00 30 1011.6
20211023071730 48 21 2.0 5.0 0.00 0.00 0.00 29 1011.8
20211023070214 48 21 2.0 4.0 0.00 0.00 0.00 29 1011.8
20211023064615 48 21 2.0 5.0 0.00 0.00 0.00 29 1012.0
20211023063153 48 20 1.0 4.0 0.00 0.00 0.00 29 1012.2
20211023061606 48 20 3.0 6.0 0.00 0.00 0.00 30 1012.2
20211023060141 47 351 1.0 4.0 0.00 0.00 0.00 32 1012.4
20211023054632 47 347 3.0 4.0 0.00 0.00 0.00 32 1012.7
20211023053051 48 314 2.0 4.0 0.00 0.00 0.00 31 1013.1
20211023051628 48 297 1.0 3.0 0.00 0.00 0.00 31 1013.2
20211023050115 48 291 1.0 3.0 0.00 0.00 0.00 31 1013.4
20211023044545 48 254 0.0 0.0 0.00 0.00 0.00 31 1013.4
20211023043207 48 254 0.0 0.0 0.00 0.00 0.00 32 1013.6
20211023041610 47 254 0.0 2.0 0.00 0.00 0.00 32 1013.6
20211023040135 47 253 0.0 2.0 0.00 0.00 0.00 32 1013.6
20211023034609 48 252 0.0 0.0 0.00 0.00 0.00 32 1013.7
20211023033051 49 252 0.0 1.0 0.00 0.00 0.00 31 1013.8
20211023031554 50 252 0.0 0.0 0.00 0.00 0.00 30 1013.6
20211023030047 50 253 0.0 2.0 0.00 0.00 0.00 30 1013.4
20211023024708 51 245 0.0 2.0 0.00 0.00 0.00 29 1013.5
20211023023054 52 245 0.0 1.0 0.00 0.00 0.00 28 1013.7
20211023021602 54 245 0.0 2.0 0.00 0.00 0.00 27 1013.7
20211023020113 55 245 0.0 0.0 0.00 0.00 0.00 25 1013.8
20211023014610 56 245 0.0 0.0 0.00 0.00 0.00 25 1013.8
20211023013040 56 245 0.0 1.0 0.00 0.00 0.00 25 1013.8
20211023011538 57 245 0.0 2.0 0.00 0.00 0.00 24 1013.7
20211023010134 58 245 0.0 0.0 0.00 0.00 0.00 22 1013.4
20211023004615 59 245 0.0 1.0 0.00 0.00 0.00 21 1013.5
20211023003053 61 245 0.0 1.0 0.00 0.00 0.00 20 1013.4